Wind_Speed
32 33 33 33 35 36 39 42 42 42 42 43 45 45 47 48 50 50 49 49 48 47 46 44 44 43 43 42 41 40 39 38 37 36 35 35 34 33 33 32 32 32 31 31
30 32 32 32 33 33 36 38 40 41 41 42 42 43 45 47 48 49 49 48 48 48 47 45 45 44 43 42 41 40 39 39 38 37 37 36 35 35 34 34 34 33 33 33
28 29 30 31 32 32 34 36 37 38 39 40 41 42 43 44 47 48 48 48 48 48 47 46 46 44 43 42 41 40 40 39 39 39 38 38 37 36 36 36 36 35 35 34
27 28 30 30 31 31 32 33 34 36 36 37 39 41 42 42 44 47 47 47 48 49 48 47 46 45 44 43 42 41 40 39 39 39 39 39 38 37 37 37 36 37 37 36
26 27 29 30 30 31 31 32 33 34 35 36 37 39 39 41 43 44 46 47 47 48 48 47 46 45 44 44 43 42 41 40 40 40 39 39 39 39 39 38 37 37 37 37
25 26 28 29 30 30 31 31 31 32 33 35 36 37 38 39 41 42 44 46 47 47 47 47 46 46 45 44 43 42 41 40 40 40 40 40 40 40 40 39 39 39 39 38
23 26 28 29 30 30 30 31 30 30 34 36 36 38 39 39 41 42 43 45 46 47 48 48 47 46 45 45 44 43 42 42 41 41 41 41 41 40 41 40 40 40 40 40
22 24 26 27 30 30 30 30 31 32 33 34 36 39 39 39 40 41 42 42 44 46 47 48 47 46 46 45 44 43 43 42 42 42 41 41 41 41 41 41 41 41 40 40
21 23 25 26 28 30 30 30 30 31 31 33 35 37 39 39 40 41 43 43 43 45 46 46 47 47 47 46 45 44 44 43 42 42 42 41 41 41 41 41 41 41 41 41
20 22 23 25 27 29 29 29 30 30 29 31 34 35 37 38 38 40 42 42 42 43 44 46 46 47 47 47 46 45 45 44 43 42 42 42 41 41 41 41 42 42 42 42
19 20 21 23 25 27 28 29 30 30 30 31 31 33 36 37 38 39 40 41 42 43 44 45 46 47 47 47 47 46 45 45 44 44 43 42 41 41 42 42 43 43 43 43
19 20 21 22 23 25 27 29 30 30 31 31 32 32 32 33 35 37 39 40 41 42 43 45 46 46 46 47 47 46 46 46 45 45 44 43 42 42 42 42 43 44 44 44
19 20 21 22 23 24 26 28 29 30 31 31 31 32 30 31 33 34 35 37 39 40 42 43 44 45 46 47 47 47 46 46 46 46 45 45 44 43 43 43 44 44 44 45
20 21 21 22 23 25 26 27 29 29 31 32 31 31 31 31 32 33 34 36 37 38 40 42 43 44 45 46 47 46 47 46 46 46 46 45 45 45 45 45 45 45 45 45
20 21 22 22 22 25 27 28 29 30 31 32 31 31 31 32 32 33 34 35 36 37 39 41 42 44 44 45 46 47 47 47 47 47 47 46 46 46 45 46 46 46 46 46
20 21 23 23 23 24 27 29 30 30 31 32 32 32 32 32 33 33 34 35 36 37 39 40 42 43 44 45 46 47 47 47 47 47 47 47 47 47 47 47 47 47 47 47
21 22 23 23 24 24 26 28 30 32 32 32 33 33 33 33 33 33 33 34 36 37 38 40 42 43 45 45 46 46 47 47 47 47 47 47 48 47 47 47 46 47 47 47
20 22 23 25 26 27 25 26 29 31 32 33 33 33 33 33 32 32 33 34 35 37 38 40 41 42 43 44 45 46 46 47 48 48 47 47 48 48 47 47 47 47 47 47
20 22 23 25 27 28 26 26 27 28 30 31 33 33 33 32 32 32 32 33 34 36 37 38 40 41 42 43 45 46 47 47 47 48 48 48 48 47 47 47 47 47 47 47
21 22 23 24 26 27 26 26 27 29 30 31 32 33 34 33 34 34 33 33 34 35 36 37 38 39 41 42 44 45 46 46 47 47 46 46 46 46 46 45 46 46 47 47
20 22 23 24 26 27 25 25 26 28 28 29 31 32 33 33 34 34 34 34 34 35 36 37 38 38 39 40 42 44 45 45 46 46 46 46 45 45 45 45 46 46 47 46
20 21 22 23 25 25 25 27 28 28 28 28 30 31 32 33 33 34 34 34 33 33 34 36 38 38 39 39 39 41 43 44 45 46 46 46 46 45 45 46 46 46 46 46
19 20 22 23 24 24 25 27 28 28 29 29 30 31 31 32 33 34 34 33 33 33 33 34 36 37 38 39 39 39 41 42 43 44 45 45 45 45 45 46 46 46 46 46
19 20 21 23 23 24 24 25 26 27 28 28 29 29 30 31 31 31 32 33 34 34 34 34 34 35 37 37 38 39 39 40 41 42 44 45 46 46 46 46 45 45 45 45
20 21 22 23 24 25 25 25 25 26 27 28 28 28 29 30 30 30 30 31 33 34 34 35 35 36 36 37 37 37 38 39 40 41 42 43 45 46 46 46 46 46 46 46
19 20 21 22 23 24 24 24 24 25 26 26 27 28 29 30 31 31 30 31 32 32 33 35 36 37 37 37 38 38 38 39 39 40 41 42 43 44 45 45 45 45 45 45
Wind_Direction
228 228 230 232 234 234 234 234 234 235 236 236 236 234 232 231 231 230 230 230 231 231 232 232 233 234 235 236 237 239 240 242 243 244 246 248 250 252 254 256 258 260 263 264
227 228 230 231 233 232 232 234 235 236 237 238 237 235 233 232 231 230 229 230 231 231 232 233 234 235 236 237 238 239 240 241 243 244 246 248 250 252 254 256 258 260 263 265
230 228 229 229 229 230 232 234 234 236 237 238 238 236 233 232 231 229 229 230 231 232 233 233 234 235 236 237 238 240 241 242 243 245 247 249 251 253 254 255 257 259 262 265
231 227 229 229 229 230 232 233 234 235 236 236 237 238 233 233 233 231 229 230 231 233 233 233 234 235 236 237 238 239 240 241 243 245 247 249 251 253 254 255 257 259 262 264
232 229 229 229 230 230 231 232 234 235 237 238 237 239 235 235 234 233 231 231 231 233 234 234 234 235 236 237 238 239 241 242 244 246 248 250 251 252 254 255 257 260 262 264
235 232 230 229 230 232 232 232 235 237 238 239 238 240 237 235 235 233 233 232 232 233 233 234 234 234 236 237 239 240 242 243 245 247 248 250 252 253 254 256 257 259 261 263
235 234 233 231 232 231 232 232 232 236 237 238 238 240 239 236 236 234 233 233 233 233 233 234 234 235 236 238 239 241 242 244 245 247 249 251 253 254 254 256 257 259 261 263
235 232 230 231 232 231 231 234 235 239 241 240 239 241 241 238 236 236 234 233 234 234 234 235 235 236 236 237 239 241 242 244 246 248 250 252 253 254 256 257 258 259 261 263
235 235 231 232 231 230 231 233 235 239 242 242 242 243 242 240 238 238 236 234 234 235 235 235 235 236 236 237 239 241 242 244 246 248 250 252 254 255 257 258 259 260 262 264
237 237 234 234 231 229 232 234 234 237 239 242 245 246 245 243 242 240 238 237 236 236 235 236 236 236 237 238 239 241 242 244 246 248 250 252 254 255 257 258 260 262 263 265
235 239 237 235 233 232 230 233 235 237 238 241 245 247 247 245 244 242 240 239 237 237 236 236 236 236 237 238 239 241 242 244 245 248 250 252 254 255 257 259 261 263 265 266
237 240 239 238 237 235 235 234 235 237 238 240 244 248 247 247 245 244 242 241 239 238 237 237 237 237 238 239 240 242 243 244 245 247 250 251 253 256 258 260 262 264 265 266
239 242 242 240 238 237 237 234 235 237 239 239 243 246 247 247 246 245 242 240 239 239 238 237 238 238 238 239 240 241 243 245 246 248 250 252 254 257 260 261 263 265 266 267
245 244 245 244 243 242 240 236 235 238 242 241 244 246 244 245 246 246 244 240 239 238 237 237 237 238 238 239 240 242 243 245 247 249 251 253 255 258 260 262 263 265 267 269
247 246 246 250 249 247 245 242 240 241 243 243 245 246 244 245 246 246 245 244 242 240 238 238 238 238 239 240 241 242 244 246 248 249 251 253 255 258 260 262 264 265 268 270
252 251 249 250 250 251 249 246 245 243 242 245 246 245 246 248 248 248 246 244 243 242 240 240 239 239 239 240 242 243 244 246 248 250 251 253 255 258 260 263 264 266 268 270
259 257 254 252 251 253 251 248 247 246 244 245 247 246 246 247 247 246 245 244 243 243 242 241 241 241 241 241 242 243 244 246 248 249 252 254 256 258 260 262 264 266 268 270
262 259 258 257 254 256 256 253 250 249 248 248 248 247 246 247 246 245 245 245 244 244 244 244 244 243 242 242 242 243 245 247 249 251 253 255 256 258 260 262 265 267 269 270
267 262 259 260 259 259 259 256 253 251 249 248 248 248 248 248 247 247 247 247 246 246 245 245 245 244 243 243 244 245 246 248 249 251 253 255 257 259 261 263 265 267 269 270
271 265 261 261 261 261 261 259 257 255 253 251 250 249 249 248 248 248 250 250 248 246 245 245 245 245 244 245 245 246 247 248 250 252 254 256 257 259 262 264 265 266 268 270
273 269 265 263 263 263 263 261 259 258 257 255 254 252 250 250 250 251 252 251 250 248 247 246 245 245 244 245 246 247 248 250 252 253 254 256 258 260 262 264 266 267 269 270
277 272 269 265 265 266 264 262 261 261 259 257 255 253 252 251 251 252 252 251 251 250 249 247 246 246 245 246 248 249 250 251 252 254 255 256 259 260 262 265 267 268 270 271
284 278 273 269 267 268 265 264 263 262 260 258 255 254 253 251 251 251 251 250 250 250 249 248 247 247 246 247 248 249 250 251 253 254 256 258 260 262 263 265 267 269 270 272
291 285 276 271 268 267 266 265 264 263 261 259 257 254 252 250 250 251 251 250 250 250 248 247 247 248 248 249 250 251 252 253 254 255 257 258 260 262 264 265 267 269 271 272
293 287 280 275 271 269 268 266 264 263 261 258 257 254 253 252 252 251 251 251 250 250 248 248 248 248 249 250 251 252 254 255 256 258 259 261 262 263 264 265 267 269 271 273
294 290 285 280 274 270 269 268 266 264 262 260 257 255 255 255 255 253 253 252 252 251 250 249 250 250 251 252 253 255 256 257 258 259 260 262 264 263 264 266 268 270 273 275
Height
5627 5632 5636 5642 5647 5653 5657 5661 5666 5672 5676 5680 5685 5690 5697 5703 5709 5717 5724 5731 5738 5744 5750 5755 5760 5766 5770 5775 5779 5783 5787 5791 5794 5797 5800 5802 5804 5806 5808 5810 5811 5812 5814 5814
5621 5626 5632 5635 5640 5644 5648 5653 5658 5663 5668 5672 5677 5682 5688 5694 5700 5708 5716 5722 5729 5736 5741 5747 5752 5758 5763 5768 5772 5776 5780 5783 5787 5790 5792 5795 5797 5799 5801 5803 5804 5805 5807 5807
5616 5623 5625 5629 5633 5637 5642 5647 5652 5656 5660 5664 5669 5674 5680 5686 5692 5699 5707 5714 5720 5727 5733 5739 5744 5750 5755 5760 5765 5769 5772 5776 5779 5782 5785 5787 5790 5792 5794 5796 5797 5798 5799 5800
5611 5616 5619 5623 5628 5632 5637 5642 5646 5649 5653 5657 5662 5666 5673 5679 5684 5691 5699 5706 5712 5718 5724 5730 5736 5742 5747 5752 5756 5761 5764 5767 5771 5774 5777 5780 5782 5785 5786 5788 5789 5791 5791 5792
5606 5611 5614 5618 5624 5627 5632 5636 5640 5643 5646 5650 5654 5658 5666 5671 5677 5684 5691 5697 5703 5709 5716 5722 5728 5734 5739 5743 5748 5752 5756 5760 5763 5766 5769 5771 5774 5776 5778 5780 5782 5783 5784 5784
5601 5605 5609 5613 5618 5622 5626 5631 5634 5637 5639 5643 5648 5652 5658 5663 5670 5676 5682 5688 5695 5701 5707 5713 5719 5725 5730 5735 5739 5744 5748 5752 5755 5758 5760 5763 5766 5768 5770 5772 5773 5774 5775 5776
5596 5600 5603 5608 5612 5616 5620 5624 5628 5629 5632 5637 5643 5645 5651 5658 5663 5668 5675 5680 5686 5692 5699 5704 5710 5716 5722 5727 5731 5736 5740 5743 5746 5749 5752 5754 5757 5759 5761 5763 5764 5766 5767 5768
5592 5595 5599 5602 5606 5610 5615 5619 5623 5625 5628 5633 5636 5638 5645 5651 5656 5661 5667 5673 5678 5684 5690 5696 5702 5708 5713 5718 5723 5727 5731 5734 5737 5740 5743 5745 5748 5750 5752 5754 5756 5757 5758 5759
5588 5591 5595 5598 5602 5606 5609 5613 5618 5621 5623 5626 5629 5633 5639 5643 5649 5653 5659 5664 5670 5675 5681 5687 5693 5699 5704 5709 5714 5718 5722 5725 5728 5731 5734 5737 5739 5741 5743 5745 5746 5747 5748 5749
5584 5588 5591 5594 5597 5601 5605 5609 5612 5614 5617 5619 5623 5628 5632 5637 5641 5646 5651 5657 5662 5667 5672 5678 5684 5689 5694 5700 5704 5709 5713 5716 5719 5722 5725 5728 5730 5732 5734 5735 5737 5738 5739 5739
5581 5584 5587 5589 5592 5596 5600 5603 5606 5609 5611 5615 5617 5623 5625 5629 5634 5638 5643 5648 5653 5658 5663 5668 5674 5679 5685 5690 5695 5699 5703 5707 5710 5713 5716 5718 5721 5723 5724 5726 5727 5728 5729 5729
5578 5580 5583 5586 5589 5591 5594 5598 5601 5604 5606 5609 5612 5618 5619 5622 5626 5630 5635 5639 5644 5649 5654 5659 5665 5670 5675 5680 5685 5689 5693 5697 5700 5703 5706 5709 5711 5713 5714 5716 5717 5718 5719 5719
5574 5576 5578 5581 5585 5587 5589 5592 5595 5598 5601 5603 5606 5612 5613 5616 5619 5622 5627 5631 5635 5640 5645 5650 5655 5660 5665 5670 5675 5680 5683 5687 5691 5694 5697 5699 5701 5703 5704 5706 5707 5707 5708 5708
5570 5572 5575 5577 5578 5581 5583 5587 5590 5592 5594 5597 5600 5604 5607 5610 5612 5615 5619 5623 5628 5632 5637 5641 5646 5651 5656 5660 5665 5670 5674 5677 5681 5684 5687 5689 5691 5693 5694 5695 5696 5697 5697 5698
5567 5569 5570 5572 5574 5576 5579 5582 5584 5586 5589 5591 5594 5597 5600 5602 5605 5608 5612 5616 5620 5624 5628 5633 5637 5641 5646 5651 5655 5660 5664 5667 5670 5673 5676 5679 5680 5682 5683 5685 5686 5686 5687 5687
5562 5564 5566 5568 5570 5571 5573 5576 5578 5581 5583 5585 5587 5590 5593 5595 5598 5601 5604 5608 5612 5615 5620 5624 5628 5632 5637 5641 5645 5649 5653 5657 5660 5663 5665 5668 5669 5671 5673 5674 5674 5675 5675 5675
5558 5560 5561 5563 5565 5565 5568 5571 5572 5574 5577 5579 5580 5584 5586 5588 5590 5593 5596 5600 5603 5607 5611 5615 5618 5622 5627 5631 5635 5639 5642 5646 5649 5651 5654 5656 5658 5660 5661 5662 5663 5664 5664 5664
5554 5555 5556 5557 5559 5560 5565 5564 5565 5567 5570 5572 5573 5576 5578 5580 5582 5584 5587 5591 5594 5598 5601 5605 5609 5612 5616 5620 5624 5628 5631 5634 5637 5640 5642 5645 5647 5648 5650 5651 5652 5652 5652 5652
5550 5550 5550 5551 5551 5553 5557 5558 5559 5560 5562 5564 5566 5568 5570 5572 5574 5577 5580 5583 5586 5589 5592 5596 5599 5603 5606 5609 5613 5616 5620 5623 5626 5628 5631 5633 5635 5637 5638 5639 5640 5640 5640 5640
5545 5545 5546 5545 5545 5547 5551 5551 5551 5554 5555 5557 5558 5560 5562 5565 5567 5570 5572 5574 5577 5580 5583 5586 5589 5593 5596 5599 5602 5605 5609 5612 5614 5617 5619 5621 5623 5625 5626 5627 5628 5628 5628 5628
5539 5539 5539 5539 5539 5540 5544 5544 5545 5548 5549 5549 5550 5552 5554 5557 5559 5561 5563 5565 5568 5571 5574 5577 5579 5582 5586 5588 5591 5595 5598 5600 5603 5606 5608 5610 5612 5613 5614 5615 5615 5616 5616 5616
5534 5534 5534 5534 5534 5538 5537 5537 5539 5540 5540 5541 5542 5544 5546 5548 5550 5552 5555 5557 5559 5562 5564 5567 5570 5572 5575 5578 5581 5584 5586 5589 5591 5594 5596 5598 5600 5601 5602 5603 5603 5604 5604 5604
5529 5529 5528 5529 5530 5530 5530 5530 5531 5531 5532 5533 5535 5536 5538 5540 5542 5544 5546 5548 5550 5553 5555 5557 5560 5562 5565 5568 5570 5573 5575 5577 5580 5582 5584 5586 5587 5589 5590 5591 5591 5591 5592 5592
5525 5523 5522 5522 5522 5523 5523 5523 5524 5524 5525 5525 5527 5528 5530 5532 5533 5535 5537 5539 5541 5543 5546 5548 5550 5552 5555 5557 5560 5562 5564 5566 5568 5570 5572 5574 5575 5577 5577 5578 5579 5579 5579 5579
5520 5518 5517 5516 5516 5515 5516 5516 5517 5517 5517 5518 5519 5521 5522 5523 5525 5527 5529 5531 5532 5534 5536 5538 5540 5543 5545 5547 5549 5551 5553 5555 5557 5559 5560 5562 5563 5564 5565 5566 5567 5567 5567 5566
5514 5513 5511 5510 5510 5509 5509 5509 5509 5509 5510 5510 5511 5513 5514 5515 5517 5518 5520 5522 5523 5524 5526 5528 5530 5533 5535 5537 5539 5541 5542 5544 5545 5547 5548 5550 5551 5552 5553 5554 5555 5554 5554 5554